TITAN 3C TRANSTAGE DEB, 43514

Orbit data source: Space-Track

TITAN 3C TRANSTAGE DEB, 43514 is space debris in GEO originally from a launch on Sun, 09 Feb 1969 UTC launched from the Air Force Eastern Test Range (AFETR). Debris objects in space refer to the collection of defunct objects orbiting the Earth. Examples of debris include non-operational satellites, rocket bodies, and fragments generated from explosions, collisions, or faulty payload assembly.

Not visible in the next 10 days
Identifier
43514, 1969-013S
Orbit
GEO
Country
Flag of USUS
Related business
Manufacturer
Martin Marietta
Mission
Spacecraft
Bus & Motor
Unknown
Mass
Unknown
Launch date (UTC)
1969-02-09 (58 years ago)
Launch vehicle
Unknown
Launch site
Air Force Eastern Test Range (AFETR)
Object type
Payload
Rocket body
Debris
Shape & HBR
Unknown shape, 1.1 m
Radar Cross Section
Medium (>0.1 m² and <1 m²)

Expand to show TLE details & history
Last TLE update: 2 days ago

TLE from 2 days ago
0 TITAN 3C TRANSTAGE DEB
1 43514U 69013S   26253.76218811 -.00000311  00000-0  00000-0 0  9994
2 43514   1.7271  64.4470 0219036  52.8101 310.0646  0.97800993879199
Epoch: 2026-09-10T18:17Z
TLE epoch observation values (Epoch: 2026-09-10T18:17:33.052Z)
Latitude
Longitude
161.17681°
Altitude
35,905.678 km
Speed
3.091 km/s
True Right ascension
04h 21m 26s
True Declination
0° 00' 00"
Sunlit
Object was in daylight at epoch
Visualization orbit readout
Latitude
Unknown
Longitude
Unknown
Altitude
Unknown
Speed
Unknown
Apparent Right ascension
Unknown
Apparent Declination
Unknown
Sunlit
N/A
Visualization observer readout
Local Sidereal Time
11:16:25
Azimuth
Unknown
Elevation
Unknown
Doppler factor
Unknown
Orbital elements
Apogee altitude
37,433.915 km
Perigee altitude
35,555.77 km
Semi-major axis
42,872.979 km
Eccentricity
0.0219
Inclination
1.7271°
RAAN
64.447°
Arg. of periapsis
52.8101°
True anomaly
308.10962°
Mean anomaly
310.0646°
Eccentric anomaly
309.09054°
Mean motion
0.24449 °/min
Orbital period
1,472.43 mins
BSTAR
0
Loading maneuver chart data...
Computing Atmospheric mass density...

Documentation

Showing up to 5 results
|